軌道要素
Epoch 2021 July 5.0 TT = JDT 2459400.5
T 2017 Mar. 12.73694 TT Rudenko
q 3.3475161 (2000.0) P Q
n 0.11397474 Peri. 209.41296 -0.50021945 +0.86010826
a 4.2130535 Node 30.89135 -0.75154875 -0.37391532
e 0.2054418 Incl. 11.22835 -0.43006392 -0.34698864
P 8.65
From 266 observations 2012 Sept. 15-2021 Oct. 17, mean residual 0".3.
|